This is the latest recevied weather packets stored in our database for station/object JS2WAD-13. If no packets are shown the sender has not sent any weather packets the latest 10 day(s).
| Time | Temp. | Humidity | Pressure | Rain* | Wind** | Luminosity | Snow |
|---|---|---|---|---|---|---|---|
| 1777773991 | 22.22° C | 52% | 902.4 hPa | 0 mm | - | 186 W/m² | - |
| 1777773691 | 22.22° C | 51% | 902.6 hPa | 0 mm | - | 195 W/m² | - |
| 1777773391 | 22.22° C | 52% | 902.6 hPa | 0 mm | - | 214 W/m² | - |
| 1777773091 | 22.22° C | 53% | 902.6 hPa | 0 mm | - | 218 W/m² | - |
| 1777772791 | 22.22° C | 53% | 902.5 hPa | 0 mm | - | 223 W/m² | - |
| 1777772491 | 21.67° C | 53% | 902.5 hPa | 0 mm | - | 165 W/m² | - |
| 1777771891 | 21.67° C | 53% | 902.7 hPa | 0 mm | - | 153 W/m² | - |
| 1777771591 | 21.67° C | 52% | 902.6 hPa | 0 mm | - | 178 W/m² | - |
| 1777771291 | 21.67° C | 52% | 902.8 hPa | 0 mm | - | 236 W/m² | - |
| 1777769791 | 20.56° C | 56% | 903.2 hPa | 0 mm | - | 209 W/m² | - |
| 1777769491 | 20.56° C | 55% | 903.1 hPa | 0 mm | - | 174 W/m² | - |
| 1777768891 | 20.56° C | 56% | 903.1 hPa | 0 mm | - | 148 W/m² | - |
| 1777768291 | 20° C | 57% | 903.2 hPa | 0 mm | - | 135 W/m² | - |
| 1777767991 | 20° C | 58% | 903.1 hPa | 0 mm | - | 132 W/m² | - |
| 1777767691 | 20° C | 58% | 903 hPa | 0 mm | - | 148 W/m² | - |
| 1777767391 | 20° C | 59% | 902.9 hPa | 0 mm | - | 156 W/m² | - |
| 1777767091 | 20° C | 59% | 902.9 hPa | 0 mm | - | 139 W/m² | - |
| 1777766791 | 20° C | 59% | 903 hPa | 0 mm | - | 120 W/m² | - |
| 1777766491 | 20° C | 60% | 903.1 hPa | 0 mm | - | 100 W/m² | - |
| 1777766191 | 20° C | 59% | 903.1 hPa | 0 mm | - | 83 W/m² | - |
| 1777764991 | 20° C | 59% | 903 hPa | 0 mm | - | 121 W/m² | - |
| 1777764691 | 19.44° C | 59% | 902.8 hPa | 0 mm | - | 123 W/m² | - |
| 1777764091 | 19.44° C | 59% | 902.6 hPa | 0 mm | - | 100 W/m² | - |
| 1777761691 | 18.89° C | 59% | 903.7 hPa | 0 mm | - | 65 W/m² | - |
| 1777761391 | 18.89° C | 59% | 903.9 hPa | 0 mm | - | 63 W/m² | - |
* Rain latest hour (hover to see other rain measurements)
** Current wind speed in m/s (hover to see current wind gust speed)